Showing default

SKYKRAFT-3D, 57956

Orbit data source: Space-Track

SKYKRAFT-3D, 57956 is a payload satellite owned by SkyKraft (AU) in SSO that was launched on Mon, 12 Jun 2023 UTC via an FALCON 9 launch vehicle from the Air Force Western Test Range (AFWTR). Payload-class satellites include a variety of spacecraft equipped with specific instruments for various scientific and technological missions. These include communications satellites like Starlink; space stations such as the ISS; scientific satellites like the Hubble; Earth observation satellites from companies like Planet Labs, Umbra, and HawkEye 360; GPS; miniature CubeSats for education and research; and military/defense satellites.

Loading next visibility...
Identifier
57956, 2023-084BZ
Orbit
SSO
Country
Flag of AUAU / AUS
Related business
Manufacturer
SkyKraft
Mission
Operational Commercial Communications
Bus & Motor
SKYKRAFT, Unknown motor
Mass
~50 kg wet, ~50 kg dry
Launch date (UTC)
2023-06-12 (2 years ago)
Launch vehicle
FALCON 9
Launch site
Air Force Western Test Range (AFWTR)
Object type
Payload
Rocket body
Debris
Shape & HBR
Box, 0.3 m
Radar Cross Section
0.065 m², Medium (>0.1 m² and < 1m²)

Expand to show TLE details & history
Last TLE update: 16 hours ago

TLE from 16 hours ago
0 SKYKRAFT-3D
1 57956U 23084BZ  25286.35435442  .00047987  00000-0  92161-3 0  9999
2 57956  97.5894  62.6868 0005924  90.7035 269.4893 15.47798086116640
Epoch: 2025-10-13T08:30Z
TLE epoch observation values (Epoch: 2025-10-13T08:30:16.221Z)
Latitude
-0.0001°
Longitude
-87.03911°
Altitude
426.33 km
Speed
7.656 km/s
True Right ascension
04h 10m 44s
True Declination
0° 00' 00"
Sunlit
Object was in full shadow at epoch
Visualization orbit readout
Latitude
Unknown
Longitude
Unknown
Altitude
Unknown
Speed
Unknown
Apparent Right ascension
Unknown
Apparent Declination
Unknown
Sunlit
N/A
Visualization observer readout
Local Sidereal Time
19:17:28
Azimuth
Unknown
Elevation
Unknown
Doppler factor
Unknown
Orbital elements
Apogee altitude
424.133 km
Perigee altitude
416.078 km
Semi-major axis
6,798.243 km
Eccentricity
0.00059
Inclination
97.5894°
RAAN
62.6868°
Arg. of periapsis
90.7035°
True anomaly
269.42142°
Mean anomaly
269.4893°
Eccentric anomaly
269.45536°
Mean motion
3.87211 °/min
Orbital period
92.97 mins
BSTAR
0.00092161
Loading maneuver chart data...
Computing Atmospheric mass density...
Loading historical data...
Loading historical data...
Loading historical data...
Loading historical data...
Loading historical data...
Loading historical data...
Loading historical data...

Documentation

Showing up to 5 results
|